Regional Weather Roundup
Issued by NWS Charleston, SC

Current Version | Previous Version | Graphics & Text | Print | Product List | Glossary On
Versions: 1 2 3 4 5 6 7 8 9 10 11 12 13 14 15 16 17 18 19 20 21 22 23 24 25 26 27 28 29 30 31 32 33 34 35 36 37 38 39 40 41 42 43 44 45 46 47 48 49 50
000
ASUS42 KCHS 250625
RWRCHS

REGIONAL WEATHER ROUNDUP
NATIONAL WEATHER SERVICE CHARLESTON SC
100 AM EST SUN JAN 25 2015

NOTE: "FAIR" INDICATES FEW OR NO CLOUDS BELOW 12,000 FEET WITH NO
SIGNIFICANT WEATHER AND/OR OBSTRUCTIONS TO VISIBILITY.

NOT ALL STATIONS ARE QUALITY CONTROLLED BY THE NATIONAL
WEATHER SERVICE. USE DATA WITH CAUTION...ESPECIALLY
DEWPOINT OBSERVATIONS.

SCZ027-030-031-034>040-042>050-250700-
...SOUTHEAST SOUTH CAROLINA...

CITY           SKY/WX    TMP DP  RH WIND       PRES   REMARKS
N CHARLESTON   CLEAR     40  31  70 SW5       29.93F WCI  37
6HR MIN TEMP:  39; 6HR MAX TEMP:  50;

WATERFRONT PRK   N/A     46 N/A N/A W7          N/A
MOUNT PLEASANT LGT RAIN N/A N/A N/A W8        29.92S
PINOPOLIS      NOT AVBL
MONCKS CORNER  FAIR      39  34  81 CALM      29.91F
SUMMERVILLE    FAIR      36  36 100 CALM      29.94R
BEAUFORT MCAS  CLEAR     44  30  57 W9        29.94S
6HR MIN TEMP:  41; 6HR MAX TEMP:  50;

BEAUFORT ARPT  FAIR      45  34  65 W10       29.93F
HILTON HEAD IS CLEAR     45  32  61 W6        29.96S
WALTERBORO     CLEAR     41  28  60 CALM      29.94R
ALLENDALE      FAIR      45  28  53 W6        29.92S

...SOUTHERN MIDLANDS AND PEE DEE...

CITY           SKY/WX    TMP DP  RH WIND       PRES   REMARKS
GEORGETOWN     NOT AVBL
KINGSTREE      NOT AVBL
ORANGEBURG     CLEAR     37  28  70 W6        29.91S WCI  32
6HR MIN TEMP:  37; 6HR MAX TEMP:  49;

BARNWELL       FAIR      39  30  70 SW7       29.93S WCI  34
AIKEN          FAIR      37  30  75 W8        29.95S WCI  31
MANNING        NOT AVBL
COLUMBIA       CLEAR     38  27  64 W6        29.91R WCI  33
6HR MIN TEMP:  37; 6HR MAX TEMP:  48;

SUMTER         CLEAR     39  28  63 W8        29.88S WCI  34
6HR MIN TEMP:  39; 6HR MAX TEMP:  48;

FLORENCE       CLEAR     39  32  76 SW5       29.88S WCI  36
6HR MIN TEMP:  38; 6HR MAX TEMP:  47;

MYRTLE BEACH   CLEAR     43  32  65 W12       29.91S
N MYRTLE BEACH CLEAR     43  35  73 W5        29.88S
6HR MIN TEMP:  41; 6HR MAX TEMP:  47;


$$

GAZ063-065-086>088-099>101-113>116-118-119-134>141-150-250700-
...SOUTHEAST GEORGIA...

CITY           SKY/WX    TMP DP  RH WIND       PRES   REMARKS
SAVANNAH ARPT  CLEAR     42  31  64 W7        29.96S
6HR MIN TEMP:  42; 6HR MAX TEMP:  50;

HUNTER AAF     CLEAR     39  33  76 W6        29.94F WCI  35
6HR MIN TEMP:  38; 6HR MAX TEMP:  47;

FORT STEWART   CLEAR     40  33  77 W6        29.96S WCI  35
6HR MIN TEMP:  40; 6HR MAX TEMP:  49;

STATESBORO     CLEAR     37  32  82 W6        29.96S WCI  32
SYLVANIA       CLEAR     42  32  67 NW8       29.95F
CLAXTON        FAIR      36  34  93 CALM      29.97S

...CSRA...CENTRAL AND FAR SOUTHEAST GEORGIA...

CITY           SKY/WX    TMP DP  RH WIND       PRES   REMARKS
THOMSON        CLEAR     39  32  75 W5        29.99F WCI  36
AUGUSTA-BUSH   CLEAR     44  26  49 W12G21    29.94S
6HR MIN TEMP:  42; 6HR MAX TEMP:  47;

AUGUSTA-DANIEL CLEAR     44  26  49 W14G22    29.93S
SWAINSBORO     FAIR      41  27  56 NW8       29.97S
VIDALIA        CLEAR     41  32  70 W3        29.98R
EASTMAN        FAIR      36  34  92 CALM      30.02R
HAZLEHURST     FAIR      39  36  89 SW3       29.99R
ALMA           CLEAR     42  31  64 W6        29.99S
6HR MIN TEMP:  40; 6HR MAX TEMP:  49;

WAYCROSS       CLEAR     41  38  89 W3        30.01R
JESUP          FAIR      37  36  93 SW3       29.99R
BAXLEY         FAIR      43  34  70 W5        29.99R
BRUNSWICK      CLEAR     43  36  75 W5        30.00S
SAINT SIMONS   CLEAR     44  36  73 W8        29.99R
6HR MIN TEMP:  44; 6HR MAX TEMP:  51;


$$

SCZ027-028-034-036>038-045-046-048>050-GAZ119-141-250700-
...LAKE AND SUPPLEMENTAL COASTAL OBSERVATIONS...

STATION/POSITION TIME  TEMP    WIND        PRES    WAVE   SWELL
                       AIR SEA DIR/SP/G            HT/PER HT/PER/DIR
                 (UTC) (F)     (DEG/KT/KT) (MB)    (FT/S) (FT/S/D)
UPR LAKE MARION  NOT AVBL
WINYAH BAY       0600   44     270/  5     1011.0S
LAKE MURRAY      0600   43     260/  8/ 11 1012.2S
ACE BASIN NERRS  NOT AVBL
FORT PULASKI     0600   48 54  280/ 14/ 17 1014.5F
SAPELO ISLAND    0600   46     270/  7     1015.0S

$$

ANZ835-935-AMZ111-154-330-350-352-354-370-450-454-472-250700-
...C-MAN AND BUOY OBSERVATIONS...

STATION/POSITION TIME  TEMP    WIND        PRES    WAVE   SWELL
                       AIR SEA DIR/SP/G            HT/PER HT/PER/DIR
                 (UTC) (F)     (DEG/KT/KT) (MB)    (FT/S) (FT/S/D)
BUOY 41004       0600   54 70  300/ 23/ 27 1011.9F   7/ 7   3/10
BUOY 41008       0600   51 55  300/ 19/ 23 1014.2R   3/ 4
FOLLY BEACH CMAN 0600   45     280/  7/ 10 1013.7F
CAPERS NEARSHORE 0500   49     290/ 17/ 19   N/A
FRIPP NEARSHORE  0500   50     310/ 17/ 21   N/A


STATION/POSITION TIME  TEMP    WIND        PRES    WAVE   SWELL
                       AIR SEA DIR/SP/G            HT/PER HT/PER/DIR
                 (UTC) (F)     (DEG/KT/KT) (MB)    (FT/S) (FT/S/D)
5E ST. MARYS GA  0600      58                N/A     2/ 3
FRYING PAN BUOY  0600   55 66  280/ 23/ 29 1011.2R   8/ 8   5/200/ 8
BUOY 41025       0600   52 71  290/ 23/ 29 1008.1R   9/11   5/160/11
CAPE LOOKOUT NC  0600   47     290/ 18/ 21 1009.9R
BUOY 41002       0536   63 72  300/ 21/ 27 1010.4R  14/11   7/220/11
BUOY 41010       0600   65 76  310/ 17/ 25 1014.0R   8/ 9
ST AUGUSTINE FL  0600   45     300/  7/  9 1016.5F


$$



USA.gov is the U.S. government's official web portal to all federal, state and local government web resources and services.